sat.trackr.live / text

‹ back to catalog

STARLINK-31122

NORAD 58774 · 2024-011K

PAYLOAD ACTIVE UNKNOWN

§ Identity

Operator
Country
US
Launch date
2024-01-14
Launch site
AFWTR
Launch vehicle
Mass (kg)
RCS (m²)

Purposes: comms

External: N2YO · Heavens-Above · Gunter

§ Orbital elements

Epoch: 2026-05-24T22:43:09.522336Z

Period
94.11 min
Inclination
53.1610°
Eccentricity
0.0001017
Mean motion
15.30193657 rev/d
Perigee alt
474.5 km
Apogee alt
475.9 km
Semi-major
6,853.4 km
B*
1.7428e-5
RAAN
19.6013°
Arg perigee
94.2397°
Mean anomaly
265.8720°
Rev number
13,194

§ Raw data

STARLINK-311221 58774U 24011K   26144.94663799  .00000157  00000+0  17428-4 0  99972 58774  53.1610  19.6013 0001017  94.2397 265.8720 15.30193657131940

JSON: /api/v1/satellites/58774 · /tle

For live sub-satellite position, see the globe view (requires WebGL).

§ Visibility from observer

Set your observer location to see the next 7 days of passes ≥ 10°. The values pass through the URL so the page stays shareable.

No JS? Fill the form by hand. The geolocation button needs JavaScript.